| time (UTC) | temp F | wind direction | speed knots | gust knots | rain 1hr in | rain 24hr in | rain mn in | humidity % | barometer mb |
| 20260906172005 | 98 | 91 | 1.7 | 0.0 | 0.00 | 0.00 | 0.00 | 41 | 1015.0 |
| 20260906171004 | 97 | 184 | 1.7 | 4.3 | 0.00 | 0.00 | 0.00 | 40 | 1015.2 |
| 20260906170005 | 97 | 185 | 1.7 | 4.3 | 0.00 | 0.00 | 0.00 | 41 | 1015.3 |
| 20260906165005 | 96 | 206 | 1.7 | 4.3 | 0.00 | 0.00 | 0.00 | 41 | 1015.4 |
| 20260906164004 | 96 | 45 | 2.6 | 5.2 | 0.00 | 0.00 | 0.00 | 40 | 1015.5 |
| 20260906163005 | 97 | 48 | 5.2 | 6.1 | 0.00 | 0.00 | 0.00 | 41 | 1015.4 |
| 20260906162005 | 96 | 86 | 1.7 | 4.3 | 0.00 | 0.00 | 0.00 | 43 | 1015.6 |
| 20260906161024 | 0 | 105 | 1.7 | 0.0 | 0.00 | 0.00 | 0.00 | 43 | 1015.6 |
| 20260906160005 | 96 | 113 | 1.7 | 3.5 | 0.00 | 0.00 | 0.00 | 42 | 1015.6 |
| 20260906155005 | 95 | 96 | 0.9 | 3.5 | 0.00 | 0.00 | 0.00 | 43 | 1015.6 |
| 20260906154004 | 95 | 151 | 0.9 | 2.6 | 0.00 | 0.00 | 0.00 | 43 | 1015.5 |
| 20260906153004 | 94 | 74 | 0.9 | 3.5 | 0.00 | 0.00 | 0.00 | 44 | 1015.4 |
| 20260906152004 | 93 | 109 | 0.9 | 2.6 | 0.00 | 0.00 | 0.00 | 44 | 1015.5 |
| 20260906151005 | 91 | 99 | 0.9 | 2.6 | 0.00 | 0.00 | 0.00 | 47 | 1015.4 |
| 20260906150004 | 0 | 92 | 0.9 | 0.0 | 0.00 | 0.00 | 0.00 | 49 | 1015.4 |
| 20260906145005 | 90 | 80 | 0.9 | 2.6 | 0.00 | 0.00 | 0.00 | 49 | 1015.4 |
| 20260906144024 | 90 | 130 | 0.9 | 2.6 | 0.00 | 0.00 | 0.00 | 50 | 1015.3 |
| 20260906143004 | 88 | 186 | 0.9 | 1.7 | 0.00 | 0.00 | 0.00 | 54 | 1015.4 |
| 20260906142024 | 86 | 76 | 0.9 | 4.3 | 0.00 | 0.00 | 0.00 | 57 | 1015.4 |
| 20260906141005 | 85 | 161 | 0.9 | 1.7 | 0.00 | 0.00 | 0.00 | 57 | 1015.5 |
| 20260906140024 | 85 | 211 | 0.9 | 0.0 | 0.00 | 0.00 | 0.00 | 58 | 1015.4 |
| 20260906135005 | 83 | 239 | 0.9 | 1.7 | 0.00 | 0.00 | 0.00 | 61 | 1015.3 |
| 20260906134004 | 82 | 172 | 0.9 | 1.7 | 0.00 | 0.00 | 0.00 | 64 | 1015.3 |
| 20260906133004 | 81 | 194 | 0.9 | 1.7 | 0.00 | 0.00 | 0.00 | 66 | 1015.4 |
| 20260906132024 | 79 | 124 | 0.0 | 0.9 | 0.00 | 0.00 | 0.00 | 66 | 1015.3 |
| 20260906131004 | 77 | 42 | 0.9 | 1.7 | 0.00 | 0.00 | 0.00 | 72 | 1015.3 |
| 20260906130004 | 75 | 189 | 0.9 | 2.6 | 0.00 | 0.00 | 0.00 | 76 | 1015.2 |
| 20260906125005 | 74 | 101 | 0.9 | 0.0 | 0.00 | 0.00 | 0.00 | 79 | 1015.0 |
| 20260906124004 | 73 | 226 | 0.9 | 1.7 | 0.00 | 0.00 | 0.00 | 79 | 1014.9 |
| 20260906123004 | 73 | 107 | 0.9 | 0.9 | 0.00 | 0.00 | 0.00 | 82 | 1014.7 |
| 20260906122004 | 72 | 86 | 0.9 | 0.9 | 0.00 | 0.00 | 0.00 | 84 | 1014.6 |
| 20260906121004 | 73 | 354 | 0.9 | 0.9 | 0.00 | 0.00 | 0.00 | 82 | 1014.5 |
| 20260906120004 | 73 | 181 | 0.9 | 1.7 | 0.00 | 0.00 | 0.00 | 82 | 1014.6 |
| 20260906115005 | 73 | 243 | 0.9 | 0.0 | 0.00 | 0.00 | 0.00 | 82 | 1014.4 |
| 20260906114004 | 73 | 257 | 0.9 | 1.7 | 0.00 | 0.00 | 0.00 | 80 | 1014.3 |
| 20260906113004 | 73 | 138 | 0.0 | 0.9 | 0.00 | 0.00 | 0.00 | 81 | 1014.2 |
| 20260906112005 | 73 | 84 | 0.9 | 1.7 | 0.00 | 0.00 | 0.00 | 80 | 1014.1 |
| 20260906111004 | 73 | 87 | 0.9 | 0.9 | 0.00 | 0.00 | 0.00 | 79 | 1014.1 |
| 20260906110004 | 74 | 85 | 0.9 | 0.9 | 0.00 | 0.00 | 0.00 | 78 | 1014.1 |
| 20260906105005 | 74 | 106 | 0.9 | 1.7 | 0.00 | 0.00 | 0.00 | 78 | 1014.0 |
| 20260906104004 | 0 | 88 | 0.9 | 0.0 | 0.00 | 0.00 | 0.00 | 78 | 1014.0 |
| 20260906103004 | 73 | 95 | 0.0 | 0.9 | 0.00 | 0.00 | 0.00 | 79 | 1013.9 |
| 20260906102004 | 73 | 67 | 0.9 | 0.9 | 0.00 | 0.00 | 0.00 | 78 | 1013.9 |
| 20260906101004 | 74 | 50 | 0.9 | 1.7 | 0.00 | 0.00 | 0.00 | 78 | 1014.0 |
| 20260906100004 | 74 | 44 | 0.9 | 1.7 | 0.00 | 0.00 | 0.00 | 78 | 1014.0 |
| 20260906095006 | 74 | 93 | 0.9 | 1.7 | 0.00 | 0.00 | 0.00 | 77 | 1013.9 |
| 20260906094004 | 74 | 107 | 0.9 | 0.0 | 0.00 | 0.00 | 0.00 | 77 | 1013.9 |
| 20260906093004 | 75 | 146 | 0.0 | 0.9 | 0.00 | 0.00 | 0.00 | 75 | 1013.9 |
| 20260906092004 | 75 | 122 | 0.9 | 0.9 | 0.00 | 0.00 | 0.00 | 75 | 1013.8 |
| 20260906091004 | 76 | 104 | 0.9 | 2.6 | 0.00 | 0.00 | 0.00 | 73 | 1013.8 |
| 20260906090004 | 75 | 69 | 0.9 | 1.7 | 0.00 | 0.00 | 0.00 | 73 | 1013.7 |
| 20260906085005 | 75 | 22 | 0.9 | 1.7 | 0.00 | 0.00 | 0.00 | 73 | 1013.6 |
| 20260906084004 | 76 | 346 | 0.9 | 3.5 | 0.00 | 0.00 | 0.00 | 73 | 1013.7 |
| 20260906083004 | 0 | 121 | 0.9 | 0.0 | 0.00 | 0.00 | 0.00 | 73 | 1013.7 |
| 20260906082004 | 77 | 344 | 0.9 | 4.3 | 0.00 | 0.00 | 0.00 | 71 | 1013.7 |
| 20260906081004 | 76 | 49 | 2.6 | 2.6 | 0.00 | 0.00 | 0.00 | 69 | 1013.7 |
| 20260906080005 | 77 | 73 | 0.9 | 1.7 | 0.00 | 0.00 | 0.00 | 71 | 1013.6 |
| 20260906075025 | 78 | 298 | 0.9 | 1.7 | 0.00 | 0.00 | 0.00 | 68 | 1013.5 |
| 20260906074004 | 78 | 174 | 0.9 | 1.7 | 0.00 | 0.00 | 0.00 | 67 | 1013.6 |
| 20260906073004 | 78 | 190 | 0.9 | 1.7 | 0.00 | 0.00 | 0.00 | 68 | 1013.6 |
| 20260906072004 | 78 | 87 | 0.9 | 0.0 | 0.00 | 0.00 | 0.00 | 67 | 1013.7 |
| 20260906071005 | 78 | 202 | 0.9 | 1.7 | 0.00 | 0.00 | 0.00 | 66 | 1013.8 |
| 20260906070005 | 78 | 94 | 0.9 | 0.9 | 0.00 | 0.00 | 0.00 | 66 | 1013.8 |
| 20260906065026 | 79 | 183 | 0.9 | 0.9 | 0.00 | 0.00 | 0.00 | 65 | 1013.9 |
| 20260906064005 | 79 | 177 | 0.9 | 1.7 | 0.00 | 0.00 | 0.00 | 63 | 1013.9 |
| 20260906063005 | 79 | 71 | 0.9 | 0.9 | 0.00 | 0.00 | 0.00 | 63 | 1013.9 |
| 20260906062005 | 79 | 79 | 0.9 | 1.7 | 0.00 | 0.00 | 0.00 | 63 | 1014.0 |
| 20260906061025 | 0 | 25 | 0.9 | 0.0 | 0.00 | 0.00 | 0.00 | 63 | 1013.8 |
| 20260906060005 | 82 | 147 | 0.9 | 1.7 | 0.00 | 0.00 | 0.00 | 59 | 1013.8 |
| 20260906055005 | 82 | 180 | 0.9 | 2.6 | 0.00 | 0.00 | 0.00 | 56 | 1013.9 |
| 20260906054025 | 83 | 105 | 0.9 | 1.7 | 0.00 | 0.00 | 0.00 | 55 | 1013.8 |
| 20260906053005 | 83 | 79 | 0.9 | 3.5 | 0.00 | 0.00 | 0.00 | 55 | 1013.7 |
| 20260906052005 | 83 | 120 | 0.9 | 2.6 | 0.00 | 0.00 | 0.00 | 55 | 1013.7 |
| 20260906051005 | 83 | 78 | 0.9 | 0.0 | 0.00 | 0.00 | 0.00 | 54 | 1013.6 |
| 20260906050005 | 84 | 65 | 0.9 | 2.6 | 0.00 | 0.00 | 0.00 | 54 | 1013.6 |
| 20260906045005 | 84 | 117 | 0.9 | 3.5 | 0.00 | 0.00 | 0.00 | 52 | 1013.5 |
| 20260906044004 | 84 | 101 | 0.9 | 3.5 | 0.00 | 0.00 | 0.00 | 52 | 1013.6 |
| 20260906043005 | 84 | 106 | 0.9 | 2.6 | 0.00 | 0.00 | 0.00 | 52 | 1013.7 |
| 20260906042005 | 84 | 96 | 0.9 | 3.5 | 0.00 | 0.00 | 0.00 | 52 | 1013.7 |
| 20260906041025 | 85 | 88 | 0.9 | 3.5 | 0.00 | 0.00 | 0.00 | 52 | 1013.6 |
| 20260906040005 | 0 | 143 | 0.9 | 0.0 | 0.00 | 0.00 | 0.00 | 52 | 1013.5 |
| 20260906035006 | 85 | 98 | 1.7 | 4.3 | 0.00 | 0.00 | 0.00 | 53 | 1013.6 |
| 20260906034005 | 85 | 132 | 0.9 | 3.5 | 0.00 | 0.00 | 0.00 | 54 | 1013.6 |
| 20260906033004 | 85 | 79 | 0.9 | 3.5 | 0.00 | 0.00 | 0.00 | 54 | 1013.6 |
| 20260906032024 | 85 | 109 | 0.9 | 2.6 | 0.00 | 0.00 | 0.00 | 55 | 1013.5 |
| 20260906031004 | 85 | 104 | 0.9 | 3.5 | 0.00 | 0.00 | 0.00 | 55 | 1013.5 |
| 20260906030005 | 85 | 118 | 0.9 | 2.6 | 0.00 | 0.00 | 0.00 | 55 | 1013.4 |
| 20260906025005 | 0 | 86 | 0.9 | 0.0 | 0.00 | 0.00 | 0.00 | 54 | 1013.3 |
| 20260906024004 | 86 | 100 | 0.9 | 2.6 | 0.00 | 0.00 | 0.00 | 54 | 1013.3 |
| 20260906023004 | 86 | 127 | 0.9 | 2.6 | 0.00 | 0.00 | 0.00 | 53 | 1013.2 |
| 20260906022004 | 86 | 123 | 0.9 | 3.5 | 0.00 | 0.00 | 0.00 | 52 | 1013.1 |
| 20260906021024 | 87 | 87 | 0.9 | 2.6 | 0.00 | 0.00 | 0.00 | 52 | 1012.9 |
| 20260906020004 | 87 | 94 | 0.9 | 4.3 | 0.00 | 0.00 | 0.00 | 51 | 1012.8 |
| 20260906015005 | 88 | 62 | 0.9 | 0.0 | 0.00 | 0.00 | 0.00 | 50 | 1012.6 |
| 20260906014005 | 88 | 77 | 2.6 | 5.2 | 0.00 | 0.00 | 0.00 | 49 | 1012.5 |
| 20260906013024 | 89 | 70 | 1.7 | 5.2 | 0.00 | 0.00 | 0.00 | 48 | 1012.5 |
| 20260906012005 | 90 | 74 | 1.7 | 3.5 | 0.00 | 0.00 | 0.00 | 46 | 1012.4 |
| 20260906011024 | 90 | 105 | 0.9 | 2.6 | 0.00 | 0.00 | 0.00 | 47 | 1012.3 |
| 20260906010004 | 91 | 80 | 1.7 | 3.5 | 0.00 | 0.00 | 0.00 | 45 | 1012.2 |
| 20260906005005 | 91 | 74 | 1.7 | 2.6 | 0.00 | 0.00 | 0.00 | 44 | 1012.1 |
| 20260906004004 | 0 | 91 | 1.7 | 0.0 | 0.00 | 0.00 | 0.00 | 43 | 1012.2 |
| 20260906003004 | 95 | 90 | 1.7 | 1.7 | 0.00 | 0.00 | 0.00 | 41 | 1012.2 |
| 20260906002004 | 98 | 95 | 0.9 | 0.9 | 0.00 | 0.00 | 0.00 | 37 | 1012.1 |
| 20260906001024 | 99 | 136 | 0.9 | 1.7 | 0.00 | 0.00 | 0.00 | 33 | 1012.1 |
| 20260906000024 | 100 | 115 | 0.9 | 2.6 | 0.00 | 0.00 | 0.00 | 32 | 1012.2 |
| 20260905235025 | 100 | 140 | 0.9 | 2.6 | 0.00 | 0.00 | 0.00 | 32 | 1012.1 |
| 20260905234004 | 100 | 103 | 1.7 | 0.0 | 0.00 | 0.00 | 0.00 | 30 | 1012.1 |
| 20260905233004 | 100 | 120 | 0.9 | 2.6 | 0.00 | 0.00 | 0.00 | 30 | 1012.1 |
| 20260905232004 | 100 | 169 | 0.9 | 2.6 | 0.00 | 0.00 | 0.00 | 30 | 1012.1 |
| 20260905231004 | 101 | 167 | 0.9 | 3.5 | 0.00 | 0.00 | 0.00 | 30 | 1012.1 |
| 20260905230004 | 101 | 123 | 0.9 | 2.6 | 0.00 | 0.00 | 0.00 | 30 | 1012.1 |
| 20260905225005 | 101 | 111 | 1.7 | 4.3 | 0.00 | 0.00 | 0.00 | 31 | 1012.0 |
| 20260905224004 | 101 | 106 | 1.7 | 4.3 | 0.00 | 0.00 | 0.00 | 29 | 1011.9 |
| 20260905223004 | 0 | 123 | 1.7 | 0.0 | 0.00 | 0.00 | 0.00 | 30 | 1011.9 |
| 20260905222004 | 100 | 129 | 0.9 | 4.3 | 0.00 | 0.00 | 0.00 | 29 | 1011.9 |
| 20260905221004 | 101 | 95 | 1.7 | 6.1 | 0.00 | 0.00 | 0.00 | 30 | 1012.0 |
| 20260905220004 | 101 | 181 | 0.9 | 4.3 | 0.00 | 0.00 | 0.00 | 30 | 1012.2 |
| 20260905215005 | 101 | 123 | 0.9 | 4.3 | 0.00 | 0.00 | 0.00 | 29 | 1012.2 |
| 20260905214004 | 101 | 75 | 2.6 | 5.2 | 0.00 | 0.00 | 0.00 | 30 | 1012.2 |
| 20260905213004 | 101 | 110 | 2.6 | 6.1 | 0.00 | 0.00 | 0.00 | 30 | 1012.3 |
| 20260905212024 | 101 | 119 | 1.7 | 0.0 | 0.00 | 0.00 | 0.00 | 32 | 1012.4 |
| 20260905211024 | 101 | 224 | 2.6 | 4.3 | 0.00 | 0.00 | 0.00 | 32 | 1012.6 |
| 20260905210004 | 100 | 234 | 1.7 | 4.3 | 0.00 | 0.00 | 0.00 | 33 | 1012.8 |
| 20260905205005 | 101 | 152 | 1.7 | 4.3 | 0.00 | 0.00 | 0.00 | 33 | 1013.0 |
| 20260905204004 | 100 | 114 | 2.6 | 4.3 | 0.00 | 0.00 | 0.00 | 32 | 1013.1 |
| 20260905203004 | 99 | 105 | 1.7 | 3.5 | 0.00 | 0.00 | 0.00 | 34 | 1013.2 |
| 20260905202004 | 98 | 135 | 1.7 | 4.3 | 0.00 | 0.00 | 0.00 | 35 | 1013.3 |
| 20260905201004 | 0 | 151 | 1.7 | 0.0 | 0.00 | 0.00 | 0.00 | 35 | 1013.5 |
| 20260905200004 | 99 | 90 | 1.7 | 6.1 | 0.00 | 0.00 | 0.00 | 36 | 1013.6 |
| 20260905195005 | 98 | 63 | 1.7 | 4.3 | 0.00 | 0.00 | 0.00 | 36 | 1013.7 |
| 20260905194004 | 96 | 66 | 2.6 | 6.1 | 0.00 | 0.00 | 0.00 | 37 | 1013.8 |
| 20260905193024 | 97 | 66 | 1.7 | 5.2 | 0.00 | 0.00 | 0.00 | 37 | 1013.9 |
| 20260905192004 | 99 | 101 | 2.6 | 6.1 | 0.00 | 0.00 | 0.00 | 37 | 1014.0 |
| 20260905191004 | 98 | 97 | 1.7 | 5.2 | 0.00 | 0.00 | 0.00 | 38 | 1014.1 |
| 20260905190004 | 0 | 187 | 1.7 | 0.0 | 0.00 | 0.00 | 0.00 | 36 | 1014.3 |
| 20260905185005 | 97 | 76 | 2.6 | 4.3 | 0.00 | 0.00 | 0.00 | 36 | 1014.6 |
| 20260905184004 | 97 | 61 | 1.7 | 5.2 | 0.00 | 0.00 | 0.00 | 38 | 1014.6 |
| 20260905183004 | 98 | 98 | 1.7 | 7.0 | 0.00 | 0.00 | 0.00 | 40 | 1014.7 |
| 20260905182005 | 98 | 77 | 3.5 | 7.8 | 0.00 | 0.00 | 0.00 | 38 | 1014.8 |
| 20260905181025 | 97 | 71 | 2.6 | 4.3 | 0.00 | 0.00 | 0.00 | 39 | 1015.0 |
| 20260905180005 | 96 | 354 | 1.7 | 0.0 | 0.00 | 0.00 | 0.00 | 39 | 1015.1 |
| 20260905175025 | 97 | 43 | 2.6 | 7.0 | 0.00 | 0.00 | 0.00 | 40 | 1015.2 |
| 20260905174005 | 96 | 103 | 1.7 | 7.0 | 0.00 | 0.00 | 0.00 | 40 | 1015.4 |
| 20260905173005 | 96 | 63 | 2.6 | 5.2 | 0.00 | 0.00 | 0.00 | 41 | 1015.5 |